OPS 0856 DEB, 24959

Orbit data source: Space-Track

OPS 0856 DEB, 24959 is space debris in LEO originally from a launch on Fri, 19 Aug 1966 UTC launched from the Air Force Western Test Range (AFWTR). Debris objects in space refer to the collection of defunct objects orbiting the Earth. Examples of debris include non-operational satellites, rocket bodies, and fragments generated from explosions, collisions, or faulty payload assembly.

Loading next visibility...
Identifier
24959, 1966-077R
Orbit
LEO
Country
Flag of USUS
Related business
Manufacturer
Unknown
Mission
Spacecraft
Bus & Motor
Unknown
Mass
Unknown
Launch date (UTC)
1966-08-19 (60 years ago)
Launch vehicle
Unknown
Launch site
Air Force Western Test Range (AFWTR)
Object type
Payload
Rocket body
Debris
Shape & HBR
Unknown shape, 0.1 m
Radar Cross Section
Medium (>0.1 m² and <1 m²)

Expand to show TLE details & history
Last TLE update: 3 weeks ago

TLE from 3 weeks ago
0 OPS 0856 DEB
1 24959U 66077R   26198.83063485 -.00004986  00000-0 -92725+0 0  9991
2 24959  88.1419 145.1308 1062210 303.0441  71.5529  8.96514096181930
Epoch: 2026-07-17T19:56Z
TLE epoch observation values (Epoch: 2026-07-17T19:56:06.851Z)
Latitude
26.57073°
Longitude
-88.62403°
Altitude
3,187.535 km
Speed
6.532 km/s
True Right ascension
09h 44m 13s
True Declination
26° 28' 06"
Sunlit
Object was in daylight at epoch
Visualization orbit readout
Latitude
Unknown
Longitude
Unknown
Altitude
Unknown
Speed
Unknown
Apparent Right ascension
Unknown
Apparent Declination
Unknown
Sunlit
N/A
Visualization observer readout
Local Sidereal Time
15:50:22
Azimuth
Unknown
Elevation
Unknown
Doppler factor
Unknown
Orbital elements
Apogee altitude
4,447.116 km
Perigee altitude
2,368.202 km
Semi-major axis
9,785.796 km
Eccentricity
0.10622
Inclination
88.1419°
RAAN
145.1308°
Arg. of periapsis
303.0441°
True anomaly
83.51698°
Mean anomaly
71.5529°
Eccentric anomaly
77.49453°
Mean motion
2.24207 °/min
Orbital period
160.57 mins
BSTAR
-0.92725
Loading maneuver chart data...
Computing Atmospheric mass density...
Loading historical data...
Loading historical data...
Loading historical data...
Loading historical data...
Loading historical data...
Loading historical data...
Loading historical data...

Documentation

Showing up to 5 results
|